Torna al catalogo

SL-14 DEB

AttivoPO
NORAD 69734·DEBRIS·🇨🇳 China

Lanciato Jan 17, 1986 da Plesetsk Cosmodrome

Loading…

Prossimi Passaggi (prossime 24 ore)

TLE

AggiornatoSource: Space-Track

Epoca: Sep 14, 2026, 11:55 UTC

1 69734U 86006C   26257.49667383  .00000256  00000-0  28410-4 0  9999
2 69734  82.5463  90.0436 0113998  35.6662 325.2097 14.78043333 68637

Traccia SL-14 DEB in tempo reale con AllMySat

Download on the App Store